CST,Max TemperatureF,Mean TemperatureF,Min TemperatureF,Max Dew PointF,MeanDew PointF,Min DewpointF,Max Humidity, Mean Humidity, Min Humidity, Max Sea Level PressureIn, Mean Sea Level PressureIn, Min Sea Level PressureIn, Max VisibilityMiles, Mean VisibilityMiles, Min VisibilityMiles, Max Wind SpeedMPH, Mean Wind SpeedMPH, Max Gust SpeedMPH,PrecipitationIn, CloudCover, Events, WindDirDegrees
2013-11-1,56,46,35,37,33,29,82,63,43,30.11,29.90,29.67,10,10,10,36,16,48,T,4,Rain,309
2013-11-2,58,40,22,29,25,22,92,58,24,30.24,30.13,29.97,10,10,10,15,7,21,0.00,0,,233
2013-11-3,60,46,32,35,31,27,89,63,37,29.93,29.73,29.59,10,10,10,25,11,33,0.00,0,,155
2013-11-4,53,40,27,35,29,24,89,62,35,30.17,29.99,29.73,10,10,9,21,7,30,0.00,2,,343
2013-11-5,35,30,24,32,29,22,96,89,82,30.20,30.08,29.97,10,4,0,21,9,24,0.27,7,Fog-Rain-Snow,7
2013-11-6,38,32,25,30,27,24,92,81,70,30.35,30.24,30.14,10,10,9,16,6,21,0.00,5,,276
2013-11-7,48,36,23,31,27,21,96,71,46,30.49,30.37,30.18,10,10,10,9,4,12,0.00,0,,302
2013-11-8,57,44,30,40,33,27,89,70,51,30.15,29.90,29.72,10,10,10,18,6,22,0.00,0,,165
2013-11-9,58,42,26,34,30,26,92,64,36,30.39,30.21,30.01,10,10,10,14,5,17,0.00,0,,321
2013-11-10,51,38,24,38,31,22,96,73,50,30.40,30.29,30.14,10,10,8,21,6,25,0.00,2,,186
2013-11-11,41,28,14,38,21,9,92,74,55,30.87,30.44,30.10,10,8,0,25,14,35,0.00,3,Fog,353
2013-11-12,40,24,8,22,15,4,91,69,47,30.90,30.76,30.50,10,10,10,17,7,23,0.00,0,,201
2013-11-13,62,45,27,34,28,21,85,60,35,30.46,30.17,29.95,10,10,10,23,7,30,0.00,0,,184
2013-11-14,59,43,26,40,31,23,92,64,36,30.01,29.95,29.91,10,10,4,15,6,20,0.00,1,,319
2013-11-15,58,42,25,38,31,25,92,64,36,29.90,29.72,29.51,10,10,9,25,7,32,0.00,0,,149
2013-11-16,62,46,30,37,27,15,100,59,17,29.48,29.36,29.29,10,7,0,22,7,28,0.00,1,Fog,220
2013-11-17,53,38,22,40,30,19,92,67,41,30.11,29.73,29.40,10,10,10,33,11,43,T,2,Rain,280
2013-11-18,58,37,16,27,20,14,92,57,21,30.26,30.16,30.10,10,10,10,20,4,24,0.00,0,,190
2013-11-19,59,45,30,35,27,21,72,51,30,30.08,29.89,29.75,10,10,10,29,13,38,0.00,0,,175
2013-11-20,60,46,32,34,31,25,76,56,36,30.08,29.80,29.70,10,10,10,26,8,37,0.00,2,,354
2013-11-21,33,23,13,25,12,4,80,71,62,30.74,30.43,30.04,10,6,1,31,20,40,T,7,Snow,345
2013-11-22,34,18,1,12,7,-2,87,60,32,30.79,30.73,30.66,10,10,10,17,5,22,0.00,0,,302
2013-11-23,25,18,10,11,6,3,84,62,40,30.96,30.83,30.72,10,10,10,15,5,20,0.00,0,,38
2013-11-24,41,28,14,27,19,6,85,70,54,30.69,30.35,30.07,10,10,10,28,14,36,0.00,2,,190
2013-11-25,45,33,20,27,22,18,96,68,40,30.30,30.20,30.11,10,10,9,21,9,24,0.00,1,,306
2013-11-26,32,19,5,20,11,2,84,55,26,30.51,30.43,30.30,10,10,10,25,11,32,0.00,2,,331
2013-11-27,47,25,3,24,14,0,88,63,38,30.50,30.24,30.03,10,10,10,23,8,29,0.00,0,,199
2013-11-28,33,23,13,23,18,10,92,75,58,30.49,30.38,30.16,10,10,9,18,7,24,0.00,4,,350
2013-11-29,46,31,15,27,20,13,88,69,49,30.47,30.28,30.14,10,10,8,16,7,21,0.00,0,,169
2013-11-30,59,38,16,29,23,14,92,60,28,30.20,30.15,30.08,10,9,5,12,2,13,0.00,0,,330